Location: Newark
(43.4100°N, 74.9600°W)
Time: 05:54:15
(UTC+00:00)

ISS - Pass Details

Date: 18 September 2019
Orbit: 411 x 421 km, 51.6° (Epoch: 21 October)

Event Time Altitude Azimuth Distance (km) Brightness Sun altitude
Rises 00:41:52 0° 207° (SSW) 2,328 0.1 -17.7°
Reaches altitude 10° 00:44:10 10° 193° (SSW) 1,471 -1.1 -18.1°
Enters shadow 00:44:27 12° 190° (S) 1,377 -1.3 -18.1°
